This demonstration page uses our WeatherBlox Daily Observations layout. Learn more.

39.92423, -83.80882

Hourly Observations for September 6, 2018

Temp ( °F °C ) Dew Point ( °F °C ) Humidity (%) Winds ( mph kmh ) Pressure ( in mb ) Visibility ( mi km ) Precip ( " mm )
12:56 am 00:56 Clear 71 21.7 71 21.7 100 100 WSW 5 7 30.18 1022 10 16.0934 0 0
1:56 am 01:56 Clear 72 22.2 70 21.1 94 94 Calm 30.18 1022 10 16.0934 0 0
2:56 am 02:56 Clear 71 21.7 71 21.7 100 100 SW 5 7 30.19 1022 9 14.48406 0 0
3:56 am 03:56 Clear 70 21.1 70 21.1 100 100 SW 5 7 30.18 1022 8 12.87472 0 0
4:56 am 04:56 Clear 69 20.6 69 20.6 100 100 W 3 6 30.18 1022 9 14.48406 0 0
5:56 am 05:56 Partly Cloudy 69 20.6 69 20.6 100 100 Calm 30.19 1023 8 12.87472 0 0
6:56 am 06:56 Mostly Cloudy with Mist and Fog 69 20.6 69 20.6 100 100 Calm 30.21 1023 5 8.0467 0 0
7:56 am 07:56 Sunny with Mist and Fog 70 21.1 70 21.1 100 100 Calm 30.22 1023 5 8.0467 0 0
8:56 am 08:56 Partly Cloudy 73 22.8 71 21.7 94 94 SSE 5 7 30.22 1024 10 16.0934 0 0
9:53 am 09:53 Cloudy with Nearby Thunderstorms 73 23 72 22 94 94 Calm 30.21 1023 10 16.0934 0.01 0.254
9:56 am 09:56 Cloudy with Nearby Thunderstorms 74 23.3 72 22.2 94 94 Calm 30.23 1024 10 16.0934 0.01 0.254
10:05 am 10:05 Cloudy with Nearby Thunderstorms 73 23 72 22 94 94 SE 3 6 30.21 1023 10 16.0934 0 0.0254
10:56 am 10:56 Mostly Cloudy with Thunderstorms 73 22.8 73 22.8 100 100 ENE 5 7 30.24 1024 8 12.87472 0.01 0.254
11:25 am 11:25 Cloudy with Nearby Thunderstorms 73 23 72 22 94 94 NE 8 13 30.24 1024 1.75 2.816345 0.14 3.556
11:32 am 11:32 Cloudy with Nearby Thunderstorms 72 22 72 22 100 100 ENE 8 13 30.24 1024 3 4.82802 0.16 4.064
11:53 am 11:53 Cloudy with Light Rain 73 23 73 23 100 100 NE 8 13 30.21 1023 8 12.87472 0.17 4.318
11:56 am 11:56 Cloudy with Light Rain 73 22.8 73 22.8 100 100 ENE 9 15 30.23 1024 9 14.48406 0.17 4.318
12:34 pm 12:34 Cloudy with Nearby Thunderstorms 75 24 72 22 89 89 NNE 6 9 30.21 1023 10 16.0934 0 0.0254
12:49 pm 12:49 Cloudy 75 24 72 22 89 89 N 8 13 30.21 1023 10 16.0934 0 0.0254
12:56 pm 12:56 Cloudy with Light Rain 74 23.3 71 21.7 91 91 N 7 11 30.24 1024 9 14.48406 0.01 0.254
1:56 pm 13:56 Mostly Cloudy 76 24.4 72 22.2 88 88 ENE 8 13 30.2 1023 10 16.0934 0.05 1.27
2:56 pm 14:56 Sunny 78 25.6 71 21.7 79 79 ENE 6 9 30.2 1023 10 16.0934 0 0
3:34 pm 15:34 Mostly Cloudy with Nearby Thunderstorms 79 26 72 22 79 79 S 3 6 30.21 1023 10 16.0934 0 0
3:56 pm 15:56 Sunny 77 25 72 22.2 85 85 S 5 7 30.2 1023 10 16.0934 0 0
4:56 pm 16:56 Partly Cloudy with Light Rain 77 25 73 22.8 88 88 Calm 30.19 1022 10 16.0934 0 0.0254
5:31 pm 17:31 Mostly Cloudy 75 24 66 19 74 74 NW 16 26 30.18 1022 10 16.0934 0 0.0254
5:39 pm 17:39 Mostly Cloudy with Nearby Thunderstorms 73 23 66 19 78 78 NNW 9 15 30.18 1022 10 16.0934 0 0.0254
5:47 pm 17:47 Mostly Cloudy with Nearby Thunderstorms 73 23 68 20 83 83 N 8 13 30.18 1022 9 14.48406 0 0.0254
5:56 pm 17:56 Mostly Sunny 73 22.8 68 20 84 84 NNW 5 7 30.19 1022 10 16.0934 0 0.0254
6:56 pm 18:56 Mostly Cloudy 72 22.2 69 20.6 91 91 N 5 7 30.19 1022 10 16.0934 0 0.0254
7:56 pm 19:56 Sunny 72 22.2 72 22.2 100 100 NE 5 7 30.18 1022 10 16.0934 0 0
8:56 pm 20:56 Mostly Clear 72 22.2 72 22.2 100 100 NNW 3 6 30.19 1022 10 16.0934 0 0
9:56 pm 21:56 Mostly Cloudy 71 21.7 71 21.7 100 100 Calm 30.22 1023 10 16.0934 0 0
10:56 pm 22:56 Mostly Clear 71 21.7 71 21.7 100 100 NNE 5 7 30.2 1023 7 11.26538 0 0.0254
11:40 pm 23:40 Mostly Cloudy 72 22 72 22 100 100 ENE 8 13 30.18 1022 10 16.0934 0 0
11:56 pm 23:56 Cloudy 72 22.2 72 22.2 100 100 ENE 8 13 30.19 1023 10 16.0934 0 0

Powered by AerisWeather